Location: Arborea
(39.7744°N, 8.5819°E)
Time: 04:13:10
(UTC+00:00)

USA 229 DEB - Pass Details

Date: 24 October 2021
Orbit: 944 x 1268 km, 63.4° (Epoch: 25 November)

Event Time Altitude Azimuth Distance (km) Brightness Sun altitude
Rises 17:22:42 0° 199° (SSW) 3,602 6.9 -10.1°
Reaches altitude 10° 17:25:14 10° 195° (SSW) 2,675 6.1 -10.6°
Maximum altitude 17:31:19 59° 118° (ESE) 1,133 3.6 -11.7°
Drops below altitude 10° 17:37:49 10° 41° (NE) 2,846 5.5 -13.0°
Enters shadow 17:39:26 - 39° (NE) 3,435 6.0 -13.3°
